| time (UTC) | temp F | wind direction | speed MPH | gust MPH | rain 1hr in | rain 24hr in | rain mn in | humidity % | barometer mb |
| 20260505230321 | 78 | 51 | 3.0 | 10.0 | 0.00 | 0.00 | 0.00 | 24 | 1010.1 |
| 20260505230122 | 77 | 94 | 6.0 | 10.0 | 0.00 | 0.00 | 0.00 | 24 | 1009.2 |
| 20260505225818 | 78 | 30 | 6.0 | 10.0 | 0.00 | 0.00 | 0.00 | 24 | 1010.2 |
| 20260505225320 | 77 | 60 | 7.0 | 10.0 | 0.00 | 0.00 | 0.00 | 25 | 1010.2 |
| 20260505224818 | 77 | 39 | 6.0 | 9.0 | 0.00 | 0.00 | 0.00 | 26 | 1010.3 |
| 20260505224520 | 77 | 33 | 4.0 | 10.0 | 0.00 | 0.00 | 0.00 | 25 | 1009.3 |
| 20260505224343 | 77 | 23 | 4.0 | 11.0 | 0.00 | 0.00 | 0.00 | 25 | 1010.4 |
| 20260505223819 | 77 | 48 | 8.0 | 11.0 | 0.00 | 0.00 | 0.00 | 27 | 1010.4 |
| 20260505223347 | 76 | 32 | 4.0 | 11.0 | 0.00 | 0.00 | 0.00 | 26 | 1010.5 |
| 20260505223116 | 75 | 36 | 4.0 | 11.0 | 0.00 | 0.00 | 0.00 | 29 | 1009.5 |
| 20260505222827 | 76 | 16 | 8.0 | 11.0 | 0.00 | 0.00 | 0.00 | 26 | 1010.5 |
| 20260505222325 | 77 | 48 | 2.0 | 6.0 | 0.00 | 0.00 | 0.00 | 28 | 1010.6 |
| 20260505221825 | 77 | 321 | 1.0 | 13.0 | 0.00 | 0.00 | 0.00 | 26 | 1010.7 |
| 20260505221508 | 76 | 358 | 5.0 | 13.0 | 0.00 | 0.00 | 0.00 | 27 | 1009.7 |
| 20260505221332 | 76 | 46 | 7.0 | 13.0 | 0.00 | 0.00 | 0.00 | 27 | 1010.7 |
| 20260505220841 | 75 | 221 | 0.0 | 2.0 | 0.00 | 0.00 | 0.00 | 31 | 1010.7 |
| 20260505220326 | 74 | 259 | 0.0 | 3.0 | 0.00 | 0.00 | 0.00 | 30 | 1010.9 |
| 20260505220103 | 73 | 211 | 1.0 | 4.0 | 0.00 | 0.00 | 0.00 | 32 | 1009.9 |
| 20260505215848 | 74 | 299 | 2.0 | 5.0 | 0.00 | 0.00 | 0.00 | 33 | 1010.9 |
| 20260505215349 | 74 | 271 | 2.0 | 6.0 | 0.00 | 0.00 | 0.00 | 32 | 1011.0 |
| 20260505214844 | 74 | 177 | 4.0 | 6.0 | 0.00 | 0.00 | 0.00 | 34 | 1010.9 |
| 20260505214505 | 74 | 211 | 2.0 | 3.0 | 0.00 | 0.00 | 0.00 | 32 | 1010.0 |
| 20260505214325 | 74 | 252 | 2.0 | 3.0 | 0.00 | 0.00 | 0.00 | 29 | 1011.0 |
| 20260505213836 | 74 | 215 | 2.0 | 4.0 | 0.00 | 0.00 | 0.00 | 32 | 1011.2 |
| 20260505213330 | 73 | 253 | 3.0 | 4.0 | 0.00 | 0.00 | 0.00 | 29 | 1011.2 |
| 20260505213108 | 72 | 238 | 2.0 | 4.0 | 0.00 | 0.00 | 0.00 | 30 | 1010.4 |
| 20260505212827 | 72 | 200 | 2.0 | 4.0 | 0.00 | 0.00 | 0.00 | 31 | 1011.4 |
| 20260505212326 | 71 | 203 | 2.0 | 4.0 | 0.00 | 0.00 | 0.00 | 34 | 1011.5 |
| 20260505211824 | 71 | 228 | 4.0 | 4.0 | 0.00 | 0.00 | 0.00 | 41 | 1011.6 |
| 20260505211319 | 72 | 226 | 3.0 | 4.0 | 0.00 | 0.00 | 0.00 | 34 | 1011.6 |
| 20260505210822 | 74 | 242 | 1.0 | 2.0 | 0.00 | 0.00 | 0.00 | 31 | 1011.7 |
| 20260505210334 | 73 | 248 | 0.0 | 3.0 | 0.00 | 0.00 | 0.00 | 32 | 1011.8 |
| 20260505210106 | 72 | 155 | 0.0 | 3.0 | 0.00 | 0.00 | 0.00 | 30 | 1010.8 |
| 20260505205828 | 72 | 246 | 1.0 | 3.0 | 0.00 | 0.00 | 0.00 | 31 | 1011.9 |
| 20260505205336 | 72 | 230 | 2.0 | 4.0 | 0.00 | 0.00 | 0.00 | 33 | 1011.9 |
| 20260505204838 | 71 | 232 | 4.0 | 4.0 | 0.00 | 0.00 | 0.00 | 33 | 1011.9 |
| 20260505204610 | 71 | 236 | 4.0 | 5.0 | 0.00 | 0.00 | 0.00 | 34 | 1011.0 |
| 20260505204331 | 72 | 218 | 4.0 | 4.0 | 0.00 | 0.00 | 0.00 | 34 | 1012.1 |
| 20260505203829 | 71 | 222 | 3.0 | 5.0 | 0.00 | 0.00 | 0.00 | 32 | 1012.2 |
| 20260505203338 | 71 | 222 | 3.0 | 5.0 | 0.00 | 0.00 | 0.00 | 33 | 1012.2 |
| 20260505203109 | 70 | 228 | 3.0 | 5.0 | 0.00 | 0.00 | 0.00 | 33 | 1011.2 |
| 20260505202834 | 70 | 226 | 4.0 | 5.0 | 0.00 | 0.00 | 0.00 | 35 | 1012.2 |
| 20260505202321 | 71 | 229 | 4.0 | 5.0 | 0.00 | 0.00 | 0.00 | 33 | 1012.3 |
| 20260505201819 | 71 | 201 | 2.0 | 5.0 | 0.00 | 0.00 | 0.00 | 33 | 1012.3 |
| 20260505201553 | 70 | 222 | 3.0 | 6.0 | 0.00 | 0.00 | 0.00 | 32 | 1011.4 |
| 20260505201334 | 70 | 217 | 3.0 | 7.0 | 0.00 | 0.00 | 0.00 | 33 | 1012.4 |
| 20260505200825 | 70 | 210 | 5.0 | 8.0 | 0.00 | 0.00 | 0.00 | 35 | 1012.5 |
| 20260505200329 | 70 | 222 | 6.0 | 8.0 | 0.00 | 0.00 | 0.00 | 36 | 1012.6 |
| 20260505200110 | 69 | 228 | 4.0 | 7.0 | 0.00 | 0.00 | 0.00 | 38 | 1011.6 |
| 20260505195836 | 70 | 222 | 5.0 | 6.0 | 0.00 | 0.00 | 0.00 | 35 | 1012.6 |
| 20260505195322 | 70 | 232 | 5.0 | 7.0 | 0.00 | 0.00 | 0.00 | 35 | 1012.7 |
| 20260505194830 | 69 | 236 | 6.0 | 7.0 | 0.00 | 0.00 | 0.00 | 35 | 1012.8 |
| 20260505194515 | 69 | 238 | 5.0 | 7.0 | 0.00 | 0.00 | 0.00 | 36 | 1011.9 |
| 20260505194338 | 69 | 235 | 5.0 | 7.0 | 0.00 | 0.00 | 0.00 | 36 | 1012.8 |
| 20260505193817 | 67 | 225 | 6.0 | 7.0 | 0.00 | 0.00 | 0.00 | 39 | 1012.9 |
| 20260505193332 | 67 | 229 | 5.0 | 6.0 | 0.00 | 0.00 | 0.00 | 41 | 1013.0 |
| 20260505193103 | 67 | 228 | 2.0 | 6.0 | 0.00 | 0.00 | 0.00 | 41 | 1012.1 |
| 20260505192833 | 67 | 226 | 4.0 | 7.0 | 0.00 | 0.00 | 0.00 | 40 | 1013.0 |
| 20260505192346 | 67 | 207 | 5.0 | 8.0 | 0.00 | 0.00 | 0.00 | 39 | 1013.1 |
| 20260505191900 | 66 | 219 | 5.0 | 8.0 | 0.00 | 0.00 | 0.00 | 42 | 1013.1 |
| 20260505191502 | 66 | 231 | 5.0 | 7.0 | 0.00 | 0.00 | 0.00 | 44 | 1012.2 |
| 20260505191327 | 67 | 238 | 7.0 | 7.0 | 0.00 | 0.00 | 0.00 | 39 | 1013.2 |
| 20260505190834 | 67 | 214 | 4.0 | 6.0 | 0.00 | 0.00 | 0.00 | 40 | 1013.2 |
| 20260505190341 | 66 | 214 | 4.0 | 6.0 | 0.00 | 0.00 | 0.00 | 39 | 1013.3 |
| 20260505185830 | 65 | 225 | 5.0 | 5.0 | 0.00 | 0.00 | 0.00 | 40 | 1013.4 |
| 20260505185333 | 64 | 210 | 4.0 | 5.0 | 0.00 | 0.00 | 0.00 | 44 | 1013.4 |
| 20260505184830 | 65 | 214 | 4.0 | 5.0 | 0.00 | 0.00 | 0.00 | 43 | 1013.5 |
| 20260505184557 | 64 | 239 | 4.0 | 5.0 | 0.00 | 0.00 | 0.00 | 41 | 1012.5 |
| 20260505184329 | 64 | 239 | 5.0 | 6.0 | 0.00 | 0.00 | 0.00 | 41 | 1013.5 |
| 20260505183824 | 64 | 236 | 4.0 | 6.0 | 0.00 | 0.00 | 0.00 | 45 | 1013.6 |
| 20260505183115 | 64 | 235 | 5.0 | 6.0 | 0.00 | 0.00 | 0.00 | 40 | 1012.7 |
| 20260505182826 | 65 | 242 | 5.0 | 6.0 | 0.00 | 0.00 | 0.00 | 40 | 1013.8 |
| 20260505182401 | 64 | 246 | 3.0 | 5.0 | 0.00 | 0.00 | 0.00 | 43 | 1013.8 |
| 20260505181848 | 63 | 225 | 3.0 | 5.0 | 0.00 | 0.00 | 0.00 | 44 | 1013.9 |
| 20260505181557 | 62 | 221 | 4.0 | 5.0 | 0.00 | 0.00 | 0.00 | 45 | 1012.9 |
| 20260505181324 | 63 | 219 | 3.0 | 4.0 | 0.00 | 0.00 | 0.00 | 48 | 1013.9 |
| 20260505180849 | 62 | 236 | 2.0 | 4.0 | 0.00 | 0.00 | 0.00 | 49 | 1013.9 |
| 20260505180324 | 62 | 225 | 2.0 | 4.0 | 0.00 | 0.00 | 0.00 | 48 | 1013.9 |
| 20260505180056 | 61 | 226 | 1.0 | 4.0 | 0.00 | 0.00 | 0.00 | 52 | 1013.0 |
| 20260505175834 | 61 | 235 | 3.0 | 4.0 | 0.00 | 0.00 | 0.00 | 51 | 1014.0 |
| 20260505175322 | 61 | 228 | 1.0 | 3.0 | 0.00 | 0.00 | 0.00 | 50 | 1014.0 |
| 20260505174850 | 60 | 226 | 1.0 | 3.0 | 0.00 | 0.00 | 0.00 | 52 | 1014.1 |
| 20260505174606 | 59 | 214 | 0.0 | 3.0 | 0.00 | 0.00 | 0.00 | 52 | 1013.1 |
| 20260505174318 | 59 | 222 | 1.0 | 3.0 | 0.00 | 0.00 | 0.00 | 54 | 1014.1 |
| 20260505173832 | 59 | 216 | 1.0 | 3.0 | 0.00 | 0.00 | 0.00 | 57 | 1014.2 |
| 20260505173331 | 59 | 231 | 1.0 | 4.0 | 0.00 | 0.00 | 0.00 | 57 | 1014.2 |
| 20260505173016 | 58 | 235 | 1.0 | 3.0 | 0.00 | 0.00 | 0.00 | 57 | 1013.2 |
| 20260505172837 | 59 | 249 | 2.0 | 3.0 | 0.00 | 0.00 | 0.00 | 56 | 1014.3 |
| 20260505172340 | 59 | 229 | 0.0 | 2.0 | 0.00 | 0.00 | 0.00 | 56 | 1014.3 |
| 20260505171511 | 57 | 236 | 0.0 | 3.0 | 0.00 | 0.00 | 0.00 | 58 | 1013.4 |
| 20260505171336 | 58 | 242 | 1.0 | 3.0 | 0.00 | 0.00 | 0.00 | 57 | 1014.4 |
| 20260505170821 | 57 | 185 | 0.0 | 3.0 | 0.00 | 0.00 | 0.00 | 59 | 1014.5 |
| 20260505170334 | 58 | 217 | 1.0 | 3.0 | 0.00 | 0.00 | 0.00 | 59 | 1014.4 |
| 20260505170114 | 58 | 213 | 0.0 | 2.0 | 0.00 | 0.00 | 0.00 | 57 | 1013.5 |
| 20260505165904 | 59 | 228 | 0.0 | 2.0 | 0.00 | 0.00 | 0.00 | 57 | 1014.5 |
| 20260505165336 | 58 | 232 | 0.0 | 3.0 | 0.00 | 0.00 | 0.00 | 57 | 1014.5 |
| 20260505164836 | 58 | 225 | 0.0 | 3.0 | 0.00 | 0.00 | 0.00 | 57 | 1014.5 |
| 20260505164351 | 57 | 218 | 0.0 | 4.0 | 0.00 | 0.00 | 0.00 | 58 | 1014.5 |
| 20260505163832 | 57 | 214 | 2.0 | 4.0 | 0.00 | 0.00 | 0.00 | 59 | 1014.5 |
| 20260505163340 | 56 | 219 | 2.0 | 4.0 | 0.00 | 0.00 | 0.00 | 60 | 1014.5 |
| 20260505163105 | 56 | 212 | 2.0 | 4.0 | 0.00 | 0.00 | 0.00 | 61 | 1013.5 |
| 20260505162826 | 56 | 235 | 3.0 | 4.0 | 0.00 | 0.00 | 0.00 | 60 | 1014.6 |
| 20260505162323 | 56 | 226 | 2.0 | 4.0 | 0.00 | 0.00 | 0.00 | 63 | 1014.6 |
| 20260505161818 | 56 | 221 | 1.0 | 3.0 | 0.00 | 0.00 | 0.00 | 63 | 1014.6 |
| 20260505161611 | 55 | 225 | 1.0 | 4.0 | 0.00 | 0.00 | 0.00 | 64 | 1013.6 |
| 20260505161329 | 56 | 246 | 1.0 | 4.0 | 0.00 | 0.00 | 0.00 | 65 | 1014.5 |
| 20260505160824 | 56 | 243 | 1.0 | 4.0 | 0.00 | 0.00 | 0.00 | 62 | 1014.6 |
| 20260505160323 | 55 | 235 | 1.0 | 3.0 | 0.00 | 0.00 | 0.00 | 65 | 1014.6 |
| 20260505153328 | 57 | 222 | 0.0 | 0.0 | 0.00 | 0.00 | 0.00 | 59 | 1014.6 |
| 20260505153054 | 58 | 203 | 0.0 | 0.0 | 0.00 | 0.00 | 0.00 | 56 | 1013.6 |
| 20260505152838 | 59 | 246 | 0.0 | 0.0 | 0.00 | 0.00 | 0.00 | 55 | 1014.6 |
| 20260505152356 | 58 | 29 | 0.0 | 0.0 | 0.00 | 0.00 | 0.00 | 52 | 1014.6 |
| 20260505151823 | 57 | 29 | 0.0 | 0.0 | 0.00 | 0.00 | 0.00 | 52 | 1014.6 |
| 20260505151603 | 57 | 29 | 0.0 | 0.0 | 0.00 | 0.00 | 0.00 | 53 | 1013.6 |
| 20260505151338 | 57 | 29 | 0.0 | 0.0 | 0.00 | 0.00 | 0.00 | 54 | 1014.6 |
| 20260505150822 | 57 | 27 | 0.0 | 0.0 | 0.00 | 0.00 | 0.00 | 54 | 1014.6 |
| 20260505150334 | 57 | 23 | 0.0 | 0.0 | 0.00 | 0.00 | 0.00 | 55 | 1014.6 |
| 20260505150109 | 56 | 25 | 0.0 | 0.0 | 0.00 | 0.00 | 0.00 | 55 | 1013.7 |
| 20260505140335 | 54 | 49 | 0.0 | 2.0 | 0.00 | 0.00 | 0.00 | 57 | 1014.3 |
| 20260505140106 | 53 | 78 | 0.0 | 1.0 | 0.00 | 0.00 | 0.00 | 58 | 1013.4 |
| 20260505130111 | 51 | 49 | 0.0 | 0.0 | 0.00 | 0.00 | 0.00 | 61 | 1012.8 |
| 20260505124818 | 50 | 76 | 0.0 | 0.0 | 0.00 | 0.00 | 0.00 | 62 | 1013.7 |
| 20260505124602 | 49 | 66 | 0.0 | 0.0 | 0.00 | 0.00 | 0.00 | 63 | 1012.6 |
| 20260505124319 | 49 | 76 | 0.0 | 0.0 | 0.00 | 0.00 | 0.00 | 65 | 1013.5 |
| 20260505123831 | 49 | 85 | 0.0 | 0.0 | 0.00 | 0.00 | 0.00 | 67 | 1013.5 |
| 20260505123349 | 49 | 85 | 0.0 | 0.0 | 0.00 | 0.00 | 0.00 | 67 | 1013.4 |
| 20260505123104 | 48 | 39 | 0.0 | 0.0 | 0.00 | 0.00 | 0.00 | 72 | 1012.5 |
| 20260505122845 | 49 | 37 | 0.0 | 0.0 | 0.00 | 0.00 | 0.00 | 73 | 1013.5 |
| 20260505122325 | 49 | 52 | 0.0 | 0.0 | 0.00 | 0.00 | 0.00 | 66 | 1013.3 |
| 20260505121821 | 49 | 60 | 0.0 | 0.0 | 0.00 | 0.00 | 0.00 | 65 | 1013.3 |
| 20260505121604 | 49 | 61 | 0.0 | 0.0 | 0.00 | 0.00 | 0.00 | 66 | 1012.4 |
| 20260505121336 | 49 | 78 | 0.0 | 0.0 | 0.00 | 0.00 | 0.00 | 66 | 1013.3 |
| 20260505120837 | 50 | 80 | 0.0 | 0.0 | 0.00 | 0.00 | 0.00 | 69 | 1013.2 |
| 20260505120346 | 50 | 81 | 0.0 | 0.0 | 0.00 | 0.00 | 0.00 | 70 | 1013.2 |
| 20260505120118 | 50 | 80 | 0.0 | 0.0 | 0.00 | 0.00 | 0.00 | 69 | 1012.2 |
| 20260505115845 | 50 | 82 | 0.0 | 0.0 | 0.00 | 0.00 | 0.00 | 68 | 1013.1 |
| 20260505115325 | 51 | 50 | 0.0 | 0.0 | 0.00 | 0.00 | 0.00 | 73 | 1013.1 |
| 20260505114818 | 51 | 250 | 0.0 | 0.0 | 0.00 | 0.00 | 0.00 | 69 | 1013.0 |
| 20260505114555 | 51 | 225 | 0.0 | 0.0 | 0.00 | 0.00 | 0.00 | 65 | 1012.1 |
| 20260505114330 | 52 | 78 | 0.0 | 0.0 | 0.00 | 0.00 | 0.00 | 61 | 1013.0 |
| 20260505113824 | 51 | 82 | 0.0 | 0.0 | 0.00 | 0.00 | 0.00 | 62 | 1012.9 |
| 20260505113329 | 50 | 70 | 0.0 | 0.0 | 0.00 | 0.00 | 0.00 | 68 | 1012.9 |
| 20260505113116 | 50 | 60 | 0.0 | 0.0 | 0.00 | 0.00 | 0.00 | 70 | 1012.0 |
| 20260505112840 | 50 | 65 | 0.0 | 0.0 | 0.00 | 0.00 | 0.00 | 72 | 1013.0 |
| 20260505112328 | 51 | 30 | 0.0 | 0.0 | 0.00 | 0.00 | 0.00 | 72 | 1012.9 |
| 20260505111837 | 51 | 39 | 0.0 | 0.0 | 0.00 | 0.00 | 0.00 | 66 | 1012.8 |
| 20260505111603 | 51 | 37 | 0.0 | 0.0 | 0.00 | 0.00 | 0.00 | 65 | 1011.9 |
| 20260505111331 | 52 | 49 | 0.0 | 0.0 | 0.00 | 0.00 | 0.00 | 64 | 1012.8 |
| 20260505110837 | 52 | 50 | 0.0 | 1.0 | 0.00 | 0.00 | 0.00 | 66 | 1012.8 |
| 20260505110337 | 53 | 31 | 0.0 | 1.0 | 0.00 | 0.00 | 0.00 | 64 | 1012.8 |
| 20260505110133 | 53 | 44 | 0.0 | 0.0 | 0.00 | 0.00 | 0.00 | 64 | 1011.9 |
| 20260505101838 | 54 | 76 | 0.0 | 0.0 | 0.00 | 0.00 | 0.00 | 56 | 1012.5 |
| 20260505101516 | 53 | 67 | 0.0 | 0.0 | 0.00 | 0.00 | 0.00 | 56 | 1011.4 |
| 20260505101339 | 54 | 80 | 0.0 | 0.0 | 0.00 | 0.00 | 0.00 | 56 | 1012.4 |
| 20260505100818 | 54 | 63 | 0.0 | 0.0 | 0.00 | 0.00 | 0.00 | 57 | 1012.4 |
| 20260505100324 | 54 | 75 | 0.0 | 0.0 | 0.00 | 0.00 | 0.00 | 57 | 1012.4 |
| 20260505095823 | 55 | 75 | 0.0 | 0.0 | 0.00 | 0.00 | 0.00 | 56 | 1012.3 |
| 20260505095345 | 55 | 50 | 0.0 | 0.0 | 0.00 | 0.00 | 0.00 | 57 | 1012.2 |
| 20260505094830 | 56 | 350 | 0.0 | 0.0 | 0.00 | 0.00 | 0.00 | 52 | 1012.2 |
| 20260505094632 | 55 | 85 | 0.0 | 0.0 | 0.00 | 0.00 | 0.00 | 53 | 1011.2 |
| 20260505094406 | 55 | 86 | 0.0 | 0.0 | 0.00 | 0.00 | 0.00 | 54 | 1012.1 |
| 20260505093834 | 55 | 106 | 0.0 | 0.0 | 0.00 | 0.00 | 0.00 | 54 | 1012.1 |
| 20260505093318 | 55 | 87 | 0.0 | 0.0 | 0.00 | 0.00 | 0.00 | 55 | 1012.0 |
| 20260505093100 | 55 | 79 | 0.0 | 0.0 | 0.00 | 0.00 | 0.00 | 55 | 1011.1 |
| 20260505092821 | 55 | 94 | 0.0 | 0.0 | 0.00 | 0.00 | 0.00 | 55 | 1012.1 |
| 20260505092322 | 55 | 52 | 0.0 | 0.0 | 0.00 | 0.00 | 0.00 | 57 | 1012.0 |
| 20260505091828 | 56 | 37 | 0.0 | 0.0 | 0.00 | 0.00 | 0.00 | 54 | 1012.0 |
| 20260505091604 | 56 | 39 | 0.0 | 0.0 | 0.00 | 0.00 | 0.00 | 54 | 1011.0 |
| 20260505091349 | 56 | 85 | 0.0 | 0.0 | 0.00 | 0.00 | 0.00 | 52 | 1011.9 |
| 20260505090844 | 57 | 86 | 0.0 | 0.0 | 0.00 | 0.00 | 0.00 | 51 | 1011.9 |
| 20260505090319 | 57 | 103 | 0.0 | 0.0 | 0.00 | 0.00 | 0.00 | 53 | 1011.9 |
| 20260505085821 | 57 | 139 | 0.0 | 0.0 | 0.00 | 0.00 | 0.00 | 52 | 1011.8 |
| 20260505085330 | 57 | 90 | 0.0 | 0.0 | 0.00 | 0.00 | 0.00 | 54 | 1011.9 |
| 20260505084824 | 57 | 99 | 0.0 | 0.0 | 0.00 | 0.00 | 0.00 | 53 | 1011.8 |
| 20260505084557 | 56 | 121 | 0.0 | 0.0 | 0.00 | 0.00 | 0.00 | 53 | 1010.8 |
| 20260505084334 | 57 | 39 | 0.0 | 0.0 | 0.00 | 0.00 | 0.00 | 52 | 1011.8 |
| 20260505083836 | 57 | 65 | 0.0 | 0.0 | 0.00 | 0.00 | 0.00 | 54 | 1011.7 |
| 20260505083321 | 57 | 99 | 0.0 | 0.0 | 0.00 | 0.00 | 0.00 | 54 | 1011.7 |
| 20260505083107 | 57 | 100 | 0.0 | 0.0 | 0.00 | 0.00 | 0.00 | 59 | 1010.6 |
| 20260505082830 | 58 | 106 | 0.0 | 0.0 | 0.00 | 0.00 | 0.00 | 60 | 1011.6 |
| 20260505082343 | 58 | 89 | 0.0 | 0.0 | 0.00 | 0.00 | 0.00 | 48 | 1011.6 |
| 20260505081818 | 59 | 101 | 0.0 | 0.0 | 0.00 | 0.00 | 0.00 | 48 | 1011.6 |
| 20260505081605 | 58 | 101 | 0.0 | 0.0 | 0.00 | 0.00 | 0.00 | 48 | 1010.5 |
| 20260505081317 | 59 | 101 | 0.0 | 0.0 | 0.00 | 0.00 | 0.00 | 48 | 1011.5 |
| 20260505080854 | 59 | 101 | 0.0 | 0.0 | 0.00 | 0.00 | 0.00 | 49 | 1011.5 |
| 20260505080332 | 59 | 93 | 0.0 | 0.0 | 0.00 | 0.00 | 0.00 | 48 | 1011.5 |
| 20260505080105 | 59 | 102 | 0.0 | 0.0 | 0.00 | 0.00 | 0.00 | 48 | 1010.4 |
| 20260505075843 | 60 | 103 | 0.0 | 0.0 | 0.00 | 0.00 | 0.00 | 47 | 1011.4 |
| 20260505075332 | 60 | 222 | 0.0 | 0.0 | 0.00 | 0.00 | 0.00 | 47 | 1011.3 |
| 20260505074823 | 60 | 223 | 0.0 | 0.0 | 0.00 | 0.00 | 0.00 | 48 | 1011.3 |
| 20260505074603 | 60 | 110 | 0.0 | 0.0 | 0.00 | 0.00 | 0.00 | 48 | 1010.2 |
| 20260505074358 | 61 | 46 | 0.0 | 0.0 | 0.00 | 0.00 | 0.00 | 49 | 1011.2 |
| 20260505073836 | 61 | 91 | 0.0 | 0.0 | 0.00 | 0.00 | 0.00 | 48 | 1011.2 |
| 20260505073320 | 61 | 96 | 0.0 | 0.0 | 0.00 | 0.00 | 0.00 | 48 | 1011.1 |
| 20260505073106 | 60 | 96 | 0.0 | 0.0 | 0.00 | 0.00 | 0.00 | 49 | 1010.0 |
| 20260505072843 | 61 | 92 | 0.0 | 0.0 | 0.00 | 0.00 | 0.00 | 47 | 1011.0 |
| 20260505072336 | 61 | 115 | 0.0 | 1.0 | 0.00 | 0.00 | 0.00 | 49 | 1011.0 |
| 20260505071848 | 62 | 222 | 0.0 | 1.0 | 0.00 | 0.00 | 0.00 | 50 | 1011.0 |
| 20260505071601 | 62 | 223 | 0.0 | 1.0 | 0.00 | 0.00 | 0.00 | 50 | 1009.9 |
| 20260505071341 | 63 | 314 | 0.0 | 1.0 | 0.00 | 0.00 | 0.00 | 50 | 1010.9 |
| 20260505070837 | 64 | 301 | 0.0 | 0.0 | 0.00 | 0.00 | 0.00 | 44 | 1010.9 |
| 20260505070324 | 64 | 250 | 0.0 | 1.0 | 0.00 | 0.00 | 0.00 | 43 | 1010.8 |
| 20260505070053 | 64 | 229 | 0.0 | 2.0 | 0.00 | 0.00 | 0.00 | 42 | 1009.7 |
| 20260505065844 | 65 | 18 | 0.0 | 2.0 | 0.00 | 0.00 | 0.00 | 43 | 1010.8 |
| 20260505065332 | 65 | 3 | 0.0 | 2.0 | 0.00 | 0.00 | 0.00 | 39 | 1010.7 |
| 20260505064834 | 66 | 44 | 0.0 | 4.0 | 0.00 | 0.00 | 0.00 | 41 | 1010.6 |
| 20260505064355 | 66 | 51 | 1.0 | 5.0 | 0.00 | 0.00 | 0.00 | 36 | 1010.5 |
| 20260505063836 | 66 | 60 | 1.0 | 5.0 | 0.00 | 0.00 | 0.00 | 37 | 1010.5 |
| 20260505063329 | 65 | 133 | 0.0 | 2.0 | 0.00 | 0.00 | 0.00 | 41 | 1010.4 |
| 20260505063056 | 65 | 13 | 0.0 | 1.0 | 0.00 | 0.00 | 0.00 | 42 | 1009.4 |
| 20260505062834 | 66 | 337 | 0.0 | 1.0 | 0.00 | 0.00 | 0.00 | 40 | 1010.4 |
| 20260505062321 | 66 | 33 | 0.0 | 1.0 | 0.00 | 0.00 | 0.00 | 36 | 1010.4 |
| 20260505061852 | 66 | 86 | 0.0 | 1.0 | 0.00 | 0.00 | 0.00 | 38 | 1010.3 |
| 20260505061604 | 65 | 49 | 0.0 | 1.0 | 0.00 | 0.00 | 0.00 | 38 | 1009.2 |
| 20260505061320 | 66 | 98 | 0.0 | 1.0 | 0.00 | 0.00 | 0.00 | 40 | 1010.2 |
| 20260505060831 | 66 | 349 | 0.0 | 2.0 | 0.00 | 0.00 | 0.00 | 39 | 1010.2 |
| 20260505060329 | 67 | 160 | 0.0 | 4.0 | 0.00 | 0.00 | 0.00 | 39 | 1010.1 |
| 20260505060107 | 66 | 20 | 0.0 | 4.0 | 0.00 | 0.00 | 0.00 | 38 | 1009.0 |
| 20260505055820 | 66 | 352 | 1.0 | 4.0 | 0.00 | 0.00 | 0.00 | 40 | 1010.1 |
| 20260505055325 | 67 | 43 | 1.0 | 5.0 | 0.00 | 0.00 | 0.00 | 38 | 1010.0 |
| 20260505054829 | 66 | 63 | 0.0 | 3.0 | 0.00 | 0.00 | 0.00 | 38 | 1009.9 |
| 20260505054600 | 65 | 43 | 0.0 | 1.0 | 0.00 | 0.00 | 0.00 | 38 | 1008.8 |
| 20260505054348 | 65 | 129 | 0.0 | 1.0 | 0.00 | 0.00 | 0.00 | 39 | 1009.8 |
| 20260505053825 | 65 | 356 | 0.0 | 1.0 | 0.00 | 0.00 | 0.00 | 41 | 1009.8 |
| 20260505053327 | 65 | 304 | 0.0 | 1.0 | 0.00 | 0.00 | 0.00 | 41 | 1009.7 |
| 20260505053106 | 64 | 115 | 0.0 | 1.0 | 0.00 | 0.00 | 0.00 | 43 | 1008.7 |
| 20260505052819 | 65 | 159 | 0.0 | 0.0 | 0.00 | 0.00 | 0.00 | 43 | 1009.7 |
| 20260505052324 | 66 | 160 | 0.0 | 1.0 | 0.00 | 0.00 | 0.00 | 43 | 1009.6 |
| 20260505051836 | 66 | 124 | 0.0 | 1.0 | 0.00 | 0.00 | 0.00 | 38 | 1009.6 |
| 20260505051613 | 66 | 96 | 0.0 | 1.0 | 0.00 | 0.00 | 0.00 | 38 | 1008.4 |
| 20260505051322 | 66 | 167 | 0.0 | 1.0 | 0.00 | 0.00 | 0.00 | 38 | 1009.5 |
| 20260505050840 | 67 | 64 | 0.0 | 1.0 | 0.00 | 0.00 | 0.00 | 40 | 1009.5 |
| 20260505050352 | 68 | 111 | 0.0 | 1.0 | 0.00 | 0.00 | 0.00 | 34 | 1009.4 |
| 20260505041612 | 68 | 203 | 0.0 | 1.0 | 0.00 | 0.00 | 0.00 | 38 | 1007.8 |
| 20260505041331 | 69 | 223 | 0.0 | 2.0 | 0.00 | 0.00 | 0.00 | 35 | 1008.9 |
| 20260505040840 | 69 | 238 | 0.0 | 2.0 | 0.00 | 0.00 | 0.00 | 39 | 1008.8 |
| 20260505040403 | 69 | 236 | 0.0 | 1.0 | 0.00 | 0.00 | 0.00 | 36 | 1008.7 |
| 20260505040015 | 69 | 68 | 0.0 | 1.0 | 0.00 | 0.00 | 0.00 | 35 | 1007.6 |
| 20260505035837 | 70 | 70 | 0.0 | 1.0 | 0.00 | 0.00 | 0.00 | 37 | 1008.7 |
| 20260505035320 | 70 | 226 | 0.0 | 1.0 | 0.00 | 0.00 | 0.00 | 36 | 1008.6 |
| 20260505034840 | 71 | 124 | 0.0 | 0.0 | 0.00 | 0.00 | 0.00 | 34 | 1008.6 |
| 20260505034600 | 71 | 124 | 0.0 | 0.0 | 0.00 | 0.00 | 0.00 | 34 | 1007.5 |
| 20260505034358 | 72 | 162 | 0.0 | 1.0 | 0.00 | 0.00 | 0.00 | 35 | 1008.6 |
| 20260505033823 | 73 | 106 | 0.0 | 1.0 | 0.00 | 0.00 | 0.00 | 31 | 1008.4 |
| 20260505033341 | 73 | 84 | 0.0 | 2.0 | 0.00 | 0.00 | 0.00 | 31 | 1008.4 |
| 20260505033017 | 73 | 93 | 0.0 | 2.0 | 0.00 | 0.00 | 0.00 | 31 | 1007.3 |
| 20260505032839 | 73 | 51 | 0.0 | 2.0 | 0.00 | 0.00 | 0.00 | 31 | 1008.4 |
| 20260505031835 | 74 | 91 | 0.0 | 1.0 | 0.00 | 0.00 | 0.00 | 31 | 1008.2 |
| 20260505031611 | 73 | 95 | 0.0 | 1.0 | 0.00 | 0.00 | 0.00 | 31 | 1007.1 |
| 20260505031321 | 74 | 109 | 0.0 | 1.0 | 0.00 | 0.00 | 0.00 | 31 | 1008.2 |
| 20260505030833 | 74 | 98 | 0.0 | 1.0 | 0.00 | 0.00 | 0.00 | 32 | 1008.1 |
| 20260505030345 | 74 | 49 | 0.0 | 4.0 | 0.00 | 0.00 | 0.00 | 33 | 1008.2 |
| 20260505025845 | 74 | 46 | 0.0 | 4.0 | 0.00 | 0.00 | 0.00 | 33 | 1008.1 |
| 20260505025336 | 74 | 66 | 1.0 | 3.0 | 0.00 | 0.00 | 0.00 | 32 | 1008.0 |
| 20260505024840 | 74 | 43 | 1.0 | 4.0 | 0.00 | 0.00 | 0.00 | 31 | 1007.9 |
| 20260505024606 | 74 | 84 | 0.0 | 5.0 | 0.00 | 0.00 | 0.00 | 31 | 1006.8 |
| 20260505024326 | 75 | 70 | 1.0 | 5.0 | 0.00 | 0.00 | 0.00 | 32 | 1007.8 |
| 20260505023829 | 75 | 78 | 1.0 | 4.0 | 0.00 | 0.00 | 0.00 | 31 | 1007.8 |
| 20260505023334 | 75 | 60 | 2.0 | 8.0 | 0.00 | 0.00 | 0.00 | 31 | 1007.8 |
| 20260505023101 | 74 | 54 | 2.0 | 8.0 | 0.00 | 0.00 | 0.00 | 31 | 1006.7 |
| 20260505022839 | 75 | 50 | 4.0 | 8.0 | 0.00 | 0.00 | 0.00 | 33 | 1007.8 |
| 20260505022343 | 76 | 27 | 5.0 | 9.0 | 0.00 | 0.00 | 0.00 | 30 | 1007.8 |
| 20260505021818 | 77 | 31 | 3.0 | 6.0 | 0.00 | 0.00 | 0.00 | 28 | 1007.8 |
| 20260505021602 | 77 | 44 | 2.0 | 6.0 | 0.00 | 0.00 | 0.00 | 29 | 1006.7 |
| 20260505021335 | 77 | 42 | 2.0 | 6.0 | 0.00 | 0.00 | 0.00 | 29 | 1007.7 |
| 20260505020827 | 77 | 33 | 1.0 | 5.0 | 0.00 | 0.00 | 0.00 | 28 | 1007.7 |
| 20260505020331 | 77 | 36 | 1.0 | 5.0 | 0.00 | 0.00 | 0.00 | 28 | 1007.7 |
| 20260505020104 | 76 | 42 | 2.0 | 5.0 | 0.00 | 0.00 | 0.00 | 30 | 1006.6 |
| 20260505015836 | 76 | 41 | 2.0 | 5.0 | 0.00 | 0.00 | 0.00 | 30 | 1007.7 |
| 20260505015352 | 77 | 59 | 4.0 | 6.0 | 0.00 | 0.00 | 0.00 | 29 | 1007.7 |
| 20260505014831 | 77 | 63 | 4.0 | 11.0 | 0.00 | 0.00 | 0.00 | 29 | 1007.7 |
| 20260505014503 | 77 | 40 | 6.0 | 11.0 | 0.00 | 0.00 | 0.00 | 30 | 1006.6 |
| 20260505014332 | 77 | 39 | 7.0 | 11.0 | 0.00 | 0.00 | 0.00 | 31 | 1007.7 |
| 20260505013831 | 77 | 44 | 5.0 | 11.0 | 0.00 | 0.00 | 0.00 | 29 | 1007.7 |
| 20260505013324 | 77 | 40 | 8.0 | 10.0 | 0.00 | 0.00 | 0.00 | 30 | 1007.7 |
| 20260505013113 | 77 | 29 | 8.0 | 10.0 | 0.00 | 0.00 | 0.00 | 32 | 1006.6 |
| 20260505012827 | 78 | 29 | 8.0 | 12.0 | 0.00 | 0.00 | 0.00 | 29 | 1007.7 |
| 20260505012331 | 77 | 56 | 8.0 | 12.0 | 0.00 | 0.00 | 0.00 | 30 | 1007.7 |
| 20260505011830 | 77 | 31 | 7.0 | 13.0 | 0.00 | 0.00 | 0.00 | 32 | 1007.8 |
| 20260505011606 | 77 | 32 | 8.0 | 13.0 | 0.00 | 0.00 | 0.00 | 31 | 1006.7 |
| 20260505011323 | 78 | 40 | 8.0 | 13.0 | 0.00 | 0.00 | 0.00 | 28 | 1007.8 |
| 20260505010839 | 79 | 46 | 9.0 | 12.0 | 0.00 | 0.00 | 0.00 | 30 | 1007.9 |
| 20260505010322 | 78 | 36 | 6.0 | 12.0 | 0.00 | 0.00 | 0.00 | 27 | 1007.8 |
| 20260505010122 | 77 | 33 | 3.0 | 13.0 | 0.00 | 0.00 | 0.00 | 27 | 1006.7 |
| 20260505005823 | 77 | 73 | 8.0 | 13.0 | 0.00 | 0.00 | 0.00 | 30 | 1007.9 |
| 20260505005326 | 78 | 17 | 11.0 | 14.0 | 0.00 | 0.00 | 0.00 | 32 | 1007.9 |
| 20260505004834 | 80 | 44 | 8.0 | 11.0 | 0.00 | 0.00 | 0.00 | 29 | 1007.9 |
| 20260505004616 | 79 | 31 | 7.0 | 11.0 | 0.00 | 0.00 | 0.00 | 25 | 1006.8 |
| 20260505004322 | 80 | 49 | 8.0 | 11.0 | 0.00 | 0.00 | 0.00 | 26 | 1007.9 |
| 20260505003838 | 79 | 13 | 8.0 | 11.0 | 0.00 | 0.00 | 0.00 | 27 | 1007.9 |
| 20260505003332 | 79 | 43 | 8.0 | 11.0 | 0.00 | 0.00 | 0.00 | 28 | 1007.9 |
| 20260505003102 | 77 | 39 | 7.0 | 16.0 | 0.00 | 0.00 | 0.00 | 30 | 1006.9 |
| 20260505002819 | 77 | 25 | 9.0 | 16.0 | 0.00 | 0.00 | 0.00 | 31 | 1008.0 |
| 20260505002336 | 78 | 41 | 10.0 | 14.0 | 0.00 | 0.00 | 0.00 | 32 | 1008.1 |
| 20260505001834 | 78 | 52 | 10.0 | 14.0 | 0.00 | 0.00 | 0.00 | 31 | 1008.1 |
| 20260505001605 | 78 | 29 | 10.0 | 13.0 | 0.00 | 0.00 | 0.00 | 30 | 1007.0 |
| 20260505001346 | 79 | 34 | 7.0 | 13.0 | 0.00 | 0.00 | 0.00 | 27 | 1008.0 |
| 20260505000824 | 78 | 67 | 8.0 | 16.0 | 0.00 | 0.00 | 0.00 | 28 | 1008.1 |
| 20260505000327 | 79 | 72 | 4.0 | 16.0 | 0.00 | 0.00 | 0.00 | 27 | 1008.1 |
| 20260505000058 | 78 | 29 | 9.0 | 17.0 | 0.00 | 0.00 | 0.00 | 26 | 1007.0 |
| 20260504235828 | 78 | 26 | 6.0 | 11.0 | 0.00 | 0.00 | 0.00 | 27 | 1008.1 |
| 20260504235319 | 78 | 46 | 8.0 | 15.0 | 0.00 | 0.00 | 0.00 | 32 | 1008.2 |
| 20260504234823 | 79 | 60 | 12.0 | 15.0 | 0.00 | 0.00 | 0.00 | 28 | 1008.3 |
| 20260504234508 | 79 | 28 | 8.0 | 13.0 | 0.00 | 0.00 | 0.00 | 27 | 1007.1 |
| 20260504234332 | 80 | 29 | 7.0 | 12.0 | 0.00 | 0.00 | 0.00 | 27 | 1008.2 |
| 20260504233844 | 79 | 42 | 4.0 | 12.0 | 0.00 | 0.00 | 0.00 | 26 | 1008.3 |
| 20260504233343 | 78 | 34 | 9.0 | 16.0 | 0.00 | 0.00 | 0.00 | 26 | 1008.3 |
| 20260504233105 | 77 | 11 | 8.0 | 16.0 | 0.00 | 0.00 | 0.00 | 29 | 1007.2 |
| 20260504232832 | 78 | 37 | 9.0 | 16.0 | 0.00 | 0.00 | 0.00 | 28 | 1008.3 |
| 20260504232322 | 79 | 46 | 9.0 | 15.0 | 0.00 | 0.00 | 0.00 | 29 | 1008.3 |
| 20260504231842 | 79 | 22 | 7.0 | 16.0 | 0.00 | 0.00 | 0.00 | 26 | 1008.3 |
| 20260504231603 | 79 | 32 | 9.0 | 16.0 | 0.00 | 0.00 | 0.00 | 27 | 1007.2 |
| 20260504231323 | 79 | 38 | 8.0 | 16.0 | 0.00 | 0.00 | 0.00 | 26 | 1008.4 |
| 20260504230819 | 79 | 52 | 6.0 | 17.0 | 0.00 | 0.00 | 0.00 | 26 | 1008.4 |